Year,Month,Day,Hour,Minute,Value (Times are PST for temperature in C)
2017,05,19,00,00,9.10
2017,05,19,00,01,9.10
2017,05,19,00,02,9.10
2017,05,19,00,03,9.10
2017,05,19,00,04,9.10
2017,05,19,00,05,9.00
2017,05,19,00,06,9.00
2017,05,19,00,07,9.00
2017,05,19,00,08,9.00
2017,05,19,00,09,8.90
2017,05,19,00,10,8.90
2017,05,19,00,11,8.90
2017,05,19,00,12,8.90
2017,05,19,00,13,8.90
2017,05,19,00,14,8.90
2017,05,19,00,15,8.90
2017,05,19,00,16,8.80
2017,05,19,00,17,8.80
2017,05,19,00,18,8.80
2017,05,19,00,19,8.80
2017,05,19,00,20,8.80
2017,05,19,00,21,8.80
2017,05,19,00,22,8.80
2017,05,19,00,23,8.70
2017,05,19,00,24,8.70
2017,05,19,00,25,8.70
2017,05,19,00,26,8.70
2017,05,19,00,27,8.70
2017,05,19,00,28,8.70
2017,05,19,00,29,8.70
2017,05,19,00,30,8.60
2017,05,19,00,31,8.60
2017,05,19,00,32,8.60
2017,05,19,00,33,8.60
2017,05,19,00,34,8.60
2017,05,19,00,35,8.60
2017,05,19,00,36,8.60
2017,05,19,00,37,8.60
2017,05,19,00,38,8.60
2017,05,19,00,39,8.60
2017,05,19,00,40,8.60
2017,05,19,00,41,8.60
2017,05,19,00,42,8.50
2017,05,19,00,43,8.50
2017,05,19,00,44,8.50
2017,05,19,00,45,8.50
2017,05,19,00,46,8.50
2017,05,19,00,47,8.50
2017,05,19,00,48,8.40
2017,05,19,00,49,8.40
2017,05,19,00,50,8.40
2017,05,19,00,51,8.40
2017,05,19,00,52,8.40
2017,05,19,00,53,8.40
2017,05,19,00,54,8.40
2017,05,19,00,55,8.40
2017,05,19,00,56,8.40
2017,05,19,00,57,8.40
2017,05,19,00,58,8.40
2017,05,19,00,59,8.30
2017,05,19,01,00,8.30
2017,05,19,01,01,8.30
2017,05,19,01,02,8.30
2017,05,19,01,03,8.30
2017,05,19,01,04,8.30
2017,05,19,01,05,8.30
2017,05,19,01,06,8.30
2017,05,19,01,07,8.30
2017,05,19,01,08,8.30
2017,05,19,01,09,8.30
2017,05,19,01,10,8.20
2017,05,19,01,11,8.20
2017,05,19,01,12,8.20
2017,05,19,01,13,8.20
2017,05,19,01,14,8.20
2017,05,19,01,15,8.20
2017,05,19,01,16,8.20
2017,05,19,01,17,8.20
2017,05,19,01,18,8.20
2017,05,19,01,19,8.20
2017,05,19,01,20,8.20
2017,05,19,01,21,8.20
2017,05,19,01,22,8.20
2017,05,19,01,23,8.20
2017,05,19,01,24,8.20
2017,05,19,01,25,8.20
2017,05,19,01,26,8.20
2017,05,19,01,27,8.20
2017,05,19,01,28,8.20
2017,05,19,01,29,8.20
2017,05,19,01,30,8.20
2017,05,19,01,31,8.20
2017,05,19,01,32,8.20
2017,05,19,01,33,8.20
2017,05,19,01,34,8.10
2017,05,19,01,35,8.10
2017,05,19,01,36,8.10
2017,05,19,01,37,8.10
2017,05,19,01,38,8.10
2017,05,19,01,39,8.10
2017,05,19,01,40,8.10
2017,05,19,01,41,8.10
2017,05,19,01,42,8.10
2017,05,19,01,43,8.10
2017,05,19,01,44,8.10
2017,05,19,01,45,8.00
2017,05,19,01,46,8.00
2017,05,19,01,47,8.00
2017,05,19,01,48,8.00
2017,05,19,01,49,8.00
2017,05,19,01,50,8.00
2017,05,19,01,51,8.00
2017,05,19,01,52,8.00
2017,05,19,01,53,7.90
2017,05,19,01,54,7.90
2017,05,19,01,55,7.90
2017,05,19,01,56,7.90
2017,05,19,01,57,7.90
2017,05,19,01,58,7.90
2017,05,19,01,59,7.90
2017,05,19,02,00,7.90
2017,05,19,02,01,7.90
2017,05,19,02,02,7.90
2017,05,19,02,03,7.90
2017,05,19,02,04,7.90
2017,05,19,02,05,7.90
2017,05,19,02,06,7.90
2017,05,19,02,07,7.90
2017,05,19,02,08,7.90
2017,05,19,02,09,7.90
2017,05,19,02,10,7.90
2017,05,19,02,11,7.90
2017,05,19,02,12,7.90
2017,05,19,02,13,7.90
2017,05,19,02,14,7.90
2017,05,19,02,15,7.90
2017,05,19,02,16,7.90
2017,05,19,02,17,7.90
2017,05,19,02,18,7.90
2017,05,19,02,19,7.90
2017,05,19,02,20,7.90
2017,05,19,02,21,7.90
2017,05,19,02,22,7.90
2017,05,19,02,23,7.90
2017,05,19,02,24,7.90
2017,05,19,02,25,7.90
2017,05,19,02,26,7.90
2017,05,19,02,27,7.90
2017,05,19,02,28,7.90
2017,05,19,02,29,7.90
2017,05,19,02,30,7.90
2017,05,19,02,31,7.90
2017,05,19,02,32,7.90
2017,05,19,02,33,7.90
2017,05,19,02,34,7.90
2017,05,19,02,35,7.90
2017,05,19,02,36,7.90
2017,05,19,02,37,8.00
2017,05,19,02,38,8.00
2017,05,19,02,39,8.00
2017,05,19,02,40,8.00
2017,05,19,02,41,8.00
2017,05,19,02,42,8.00
2017,05,19,02,43,8.00
2017,05,19,02,44,8.00
2017,05,19,02,45,8.00
2017,05,19,02,46,8.00
2017,05,19,02,47,8.00
2017,05,19,02,48,8.00
2017,05,19,02,49,8.00
2017,05,19,02,50,8.00
2017,05,19,02,51,8.10
2017,05,19,02,52,8.10
2017,05,19,02,53,8.10
2017,05,19,02,54,8.10
2017,05,19,02,55,8.10
2017,05,19,02,56,8.10
2017,05,19,02,57,8.10
2017,05,19,02,58,8.10
2017,05,19,02,59,8.10
2017,05,19,03,00,8.10
2017,05,19,03,01,8.10
2017,05,19,03,02,8.10
2017,05,19,03,03,8.10
2017,05,19,03,04,8.10
2017,05,19,03,05,8.10
2017,05,19,03,06,8.10
2017,05,19,03,07,8.10
2017,05,19,03,08,8.10
2017,05,19,03,09,8.10
2017,05,19,03,10,8.10
2017,05,19,03,11,8.10
2017,05,19,03,12,8.10
2017,05,19,03,13,8.10
2017,05,19,03,14,8.10
2017,05,19,03,15,8.10
2017,05,19,03,16,8.00
2017,05,19,03,17,8.00
2017,05,19,03,18,8.00
2017,05,19,03,19,8.00
2017,05,19,03,20,8.00
2017,05,19,03,21,8.00
2017,05,19,03,22,8.00
2017,05,19,03,23,8.00
2017,05,19,03,24,8.00
2017,05,19,03,25,8.00
2017,05,19,03,26,8.00
2017,05,19,03,27,8.10
2017,05,19,03,28,8.10
2017,05,19,03,29,8.00
2017,05,19,03,30,8.00
2017,05,19,03,31,8.10
2017,05,19,03,32,8.00
2017,05,19,03,33,8.00
2017,05,19,03,34,8.00
2017,05,19,03,35,8.00
2017,05,19,03,36,8.00
2017,05,19,03,37,8.00
2017,05,19,03,38,8.00
2017,05,19,03,39,8.00
2017,05,19,03,40,8.00
2017,05,19,03,41,8.00
2017,05,19,03,42,8.00
2017,05,19,03,43,8.00
2017,05,19,03,44,8.00
2017,05,19,03,45,8.00
2017,05,19,03,46,8.00
2017,05,19,03,47,8.00
2017,05,19,03,48,8.00
2017,05,19,03,49,8.00
2017,05,19,03,50,8.00
2017,05,19,03,51,8.00
2017,05,19,03,52,8.00
2017,05,19,03,53,8.00
2017,05,19,03,54,8.00
2017,05,19,03,55,8.00
2017,05,19,03,56,8.00
2017,05,19,03,57,8.00
2017,05,19,03,58,8.00
2017,05,19,03,59,8.00
2017,05,19,04,00,8.00
2017,05,19,04,01,8.00
2017,05,19,04,02,8.00
2017,05,19,04,03,8.00
2017,05,19,04,04,8.00
2017,05,19,04,05,8.00
2017,05,19,04,06,8.10
2017,05,19,04,07,8.10
2017,05,19,04,08,8.10
2017,05,19,04,09,8.10
2017,05,19,04,10,8.10
2017,05,19,04,11,8.10
2017,05,19,04,12,8.10
2017,05,19,04,13,8.10
2017,05,19,04,14,8.10
2017,05,19,04,15,8.10
2017,05,19,04,16,8.10
2017,05,19,04,17,8.10
2017,05,19,04,18,8.10
2017,05,19,04,19,8.10
2017,05,19,04,20,8.10
2017,05,19,04,21,8.10
2017,05,19,04,22,8.10
2017,05,19,04,23,8.10
2017,05,19,04,24,8.10
2017,05,19,04,25,8.10
2017,05,19,04,26,8.10
2017,05,19,04,27,8.10
2017,05,19,04,28,8.10
2017,05,19,04,29,8.10
2017,05,19,04,30,8.10
2017,05,19,04,31,8.10
2017,05,19,04,32,8.10
2017,05,19,04,33,8.10
2017,05,19,04,34,8.10
2017,05,19,04,35,8.10
2017,05,19,04,36,8.10
2017,05,19,04,37,8.10
2017,05,19,04,38,8.10
2017,05,19,04,39,8.10
2017,05,19,04,40,8.10
2017,05,19,04,41,8.10
2017,05,19,04,42,8.20
2017,05,19,04,43,8.20
2017,05,19,04,44,8.20
2017,05,19,04,45,8.20
2017,05,19,04,46,8.20
2017,05,19,04,47,8.30
2017,05,19,04,48,8.30
2017,05,19,04,49,8.30
2017,05,19,04,50,8.30
2017,05,19,04,51,8.30
2017,05,19,04,52,8.30
2017,05,19,04,53,8.30
2017,05,19,04,54,8.30
2017,05,19,04,55,8.30
2017,05,19,04,56,8.30
2017,05,19,04,57,8.30
2017,05,19,04,58,8.30
2017,05,19,04,59,8.30
2017,05,19,05,00,8.30
2017,05,19,05,01,8.40
2017,05,19,05,02,8.40
2017,05,19,05,03,8.40
2017,05,19,05,04,8.40
2017,05,19,05,05,8.40
2017,05,19,05,06,8.40
2017,05,19,05,07,8.40
2017,05,19,05,08,8.40
2017,05,19,05,09,8.30
2017,05,19,05,10,8.30
2017,05,19,05,11,8.30
2017,05,19,05,12,8.30
2017,05,19,05,13,8.30
2017,05,19,05,14,8.30
2017,05,19,05,15,8.30
2017,05,19,05,16,8.30
2017,05,19,05,17,8.30
2017,05,19,05,18,8.30
2017,05,19,05,19,8.30
2017,05,19,05,20,8.30
2017,05,19,05,21,8.30
2017,05,19,05,22,8.30
2017,05,19,05,23,8.30
2017,05,19,05,24,8.30
2017,05,19,05,25,8.30
2017,05,19,05,26,8.30
2017,05,19,05,27,8.20
2017,05,19,05,28,8.20
2017,05,19,05,29,8.20
2017,05,19,05,30,8.20
2017,05,19,05,31,8.20
2017,05,19,05,32,8.20
2017,05,19,05,33,8.20
2017,05,19,05,34,8.20
2017,05,19,05,35,8.20
2017,05,19,05,36,8.20
2017,05,19,05,37,8.20
2017,05,19,05,38,8.20
2017,05,19,05,39,8.20
2017,05,19,05,40,8.20
2017,05,19,05,41,8.20
2017,05,19,05,42,8.20
2017,05,19,05,43,8.20
2017,05,19,05,44,8.20
2017,05,19,05,45,8.20
2017,05,19,05,46,8.20
2017,05,19,05,47,8.20
2017,05,19,05,48,8.20
2017,05,19,05,49,8.20
2017,05,19,05,50,8.20
2017,05,19,05,51,8.20
2017,05,19,05,52,8.20
2017,05,19,05,53,8.20
2017,05,19,05,54,8.20
2017,05,19,05,55,8.20
2017,05,19,05,56,8.20
2017,05,19,05,57,8.20
2017,05,19,05,58,8.20
2017,05,19,05,59,8.20
2017,05,19,06,00,8.20
2017,05,19,06,01,8.20
2017,05,19,06,02,8.20
2017,05,19,06,03,8.20
2017,05,19,06,04,8.20
2017,05,19,06,05,8.20
2017,05,19,06,06,8.20
2017,05,19,06,07,8.20
2017,05,19,06,08,8.20
2017,05,19,06,09,8.30
2017,05,19,06,10,8.30
2017,05,19,06,11,8.30
2017,05,19,06,12,8.30
2017,05,19,06,13,8.30
2017,05,19,06,14,8.30
2017,05,19,06,15,8.30
2017,05,19,06,16,8.30
2017,05,19,06,17,8.30
2017,05,19,06,18,8.30
2017,05,19,06,19,8.30
2017,05,19,06,20,8.30
2017,05,19,06,21,8.30
2017,05,19,06,22,8.30
2017,05,19,06,23,8.30
2017,05,19,06,24,8.30
2017,05,19,06,25,8.30
2017,05,19,06,26,8.40
2017,05,19,06,27,8.40
2017,05,19,06,28,8.40
2017,05,19,06,29,8.40
2017,05,19,06,30,8.40
2017,05,19,06,31,8.40
2017,05,19,06,32,8.40
2017,05,19,06,33,8.40
2017,05,19,06,34,8.40
2017,05,19,06,35,8.50
2017,05,19,06,36,8.50
2017,05,19,06,37,8.50
2017,05,19,06,38,8.50
2017,05,19,06,39,8.50
2017,05,19,06,40,8.50
2017,05,19,06,41,8.60
2017,05,19,06,42,8.60
2017,05,19,06,43,8.60
2017,05,19,06,44,8.60
2017,05,19,06,45,8.60
2017,05,19,06,46,8.60
2017,05,19,06,47,8.60
2017,05,19,06,48,8.60
2017,05,19,06,49,8.60
2017,05,19,06,50,8.60
2017,05,19,06,51,8.60
2017,05,19,06,52,8.60
2017,05,19,06,53,8.70
2017,05,19,06,54,8.70
2017,05,19,06,55,8.70
2017,05,19,06,56,8.70
2017,05,19,06,57,8.70
2017,05,19,06,58,8.80
2017,05,19,06,59,8.80
2017,05,19,07,00,8.80
2017,05,19,07,01,8.80
2017,05,19,07,02,8.80
2017,05,19,07,03,8.80
2017,05,19,07,04,8.80
2017,05,19,07,05,8.90
2017,05,19,07,06,8.90
2017,05,19,07,07,8.90
2017,05,19,07,08,8.90
2017,05,19,07,09,8.90
2017,05,19,07,10,8.90
2017,05,19,07,11,8.90
2017,05,19,07,12,9.00
2017,05,19,07,13,9.00
2017,05,19,07,14,9.00
2017,05,19,07,15,9.00
2017,05,19,07,16,9.10
2017,05,19,07,17,9.10
2017,05,19,07,18,9.10
2017,05,19,07,19,9.10
2017,05,19,07,20,9.10
2017,05,19,07,21,9.10
2017,05,19,07,22,9.10
2017,05,19,07,23,9.20
2017,05,19,07,24,9.20
2017,05,19,07,25,9.20
2017,05,19,07,26,9.20
2017,05,19,07,27,9.20
2017,05,19,07,28,9.30
2017,05,19,07,29,9.30
2017,05,19,07,30,9.30
2017,05,19,07,31,9.30
2017,05,19,07,32,9.40
2017,05,19,07,33,9.40
2017,05,19,07,34,9.40
2017,05,19,07,35,9.40
2017,05,19,07,36,9.40
2017,05,19,07,37,9.50
2017,05,19,07,38,9.50
2017,05,19,07,39,9.60
2017,05,19,07,40,9.60
2017,05,19,07,41,9.60
2017,05,19,07,42,9.60
2017,05,19,07,43,9.60
2017,05,19,07,44,9.60
2017,05,19,07,45,9.70
2017,05,19,07,46,9.70
2017,05,19,07,47,9.70
2017,05,19,07,48,9.80
2017,05,19,07,49,9.80
2017,05,19,07,50,9.80
2017,05,19,07,51,9.80
2017,05,19,07,52,9.90
2017,05,19,07,53,9.90
2017,05,19,07,54,9.90
2017,05,19,07,55,9.90
2017,05,19,07,56,10.00
2017,05,19,07,57,10.00
2017,05,19,07,58,10.00
2017,05,19,07,59,10.10
2017,05,19,08,00,10.10
2017,05,19,08,01,10.10
2017,05,19,08,02,10.20
2017,05,19,08,03,10.20
2017,05,19,08,04,10.20
2017,05,19,08,05,10.20
2017,05,19,08,06,10.30
2017,05,19,08,07,10.30
2017,05,19,08,08,10.30
2017,05,19,08,09,10.40
2017,05,19,08,10,10.40
2017,05,19,08,11,10.40
2017,05,19,08,12,10.50
2017,05,19,08,13,10.50
2017,05,19,08,14,10.50
2017,05,19,08,15,10.50
2017,05,19,08,16,10.60
2017,05,19,08,17,10.60
2017,05,19,08,18,10.60
2017,05,19,08,19,10.70
2017,05,19,08,20,10.70
2017,05,19,08,21,10.70
2017,05,19,08,22,10.80
2017,05,19,08,23,10.80
2017,05,19,08,24,10.80
2017,05,19,08,25,10.80
2017,05,19,08,26,10.90
2017,05,19,08,27,10.90
2017,05,19,08,28,11.00
2017,05,19,08,29,11.00
2017,05,19,08,30,11.10
2017,05,19,08,31,11.10
2017,05,19,08,32,11.10
2017,05,19,08,33,11.10
2017,05,19,08,34,11.20
2017,05,19,08,35,11.20
2017,05,19,08,36,11.20
2017,05,19,08,37,11.30
2017,05,19,08,38,11.30
2017,05,19,08,39,11.30
2017,05,19,08,40,11.30
2017,05,19,08,41,11.30
2017,05,19,08,42,11.30
2017,05,19,08,43,11.40
2017,05,19,08,44,11.40
2017,05,19,08,45,11.40
2017,05,19,08,46,11.40
2017,05,19,08,47,11.40
2017,05,19,08,48,11.50
2017,05,19,08,49,11.50
2017,05,19,08,50,11.50
2017,05,19,08,51,11.50
2017,05,19,08,52,11.60
2017,05,19,08,53,11.60
2017,05,19,08,54,11.60
2017,05,19,08,55,11.60
2017,05,19,08,56,11.70
2017,05,19,08,57,11.70
2017,05,19,08,58,11.80
2017,05,19,08,59,11.80
2017,05,19,09,00,11.80
2017,05,19,09,01,11.90
2017,05,19,09,02,11.90
2017,05,19,09,03,11.90
2017,05,19,09,04,12.00
2017,05,19,09,05,12.00
2017,05,19,09,06,12.10
2017,05,19,09,07,12.10
2017,05,19,09,08,12.20
2017,05,19,09,09,12.20
2017,05,19,09,10,12.20
2017,05,19,09,11,12.30
2017,05,19,09,12,12.30
2017,05,19,09,13,12.30
2017,05,19,09,14,12.40
2017,05,19,09,15,12.40
2017,05,19,09,16,12.40
2017,05,19,09,17,12.50
2017,05,19,09,18,12.50
2017,05,19,09,19,12.60
2017,05,19,09,20,12.60
2017,05,19,09,21,12.60
2017,05,19,09,22,12.70
2017,05,19,09,23,12.70
2017,05,19,09,24,12.80
2017,05,19,09,25,12.80
2017,05,19,09,26,12.80
2017,05,19,09,27,12.90
2017,05,19,09,28,12.90
2017,05,19,09,29,12.90
2017,05,19,09,30,13.00
2017,05,19,09,31,13.00
2017,05,19,09,32,13.10
2017,05,19,09,33,13.10
2017,05,19,09,34,13.10
2017,05,19,09,35,13.20
2017,05,19,09,36,13.20
2017,05,19,09,37,13.20
2017,05,19,09,38,13.20
2017,05,19,09,39,13.20
2017,05,19,09,40,13.20
2017,05,19,09,41,13.20
2017,05,19,09,42,13.30
2017,05,19,09,43,13.30
2017,05,19,09,44,13.30
2017,05,19,09,45,13.30
2017,05,19,09,46,13.30
2017,05,19,09,47,13.40
2017,05,19,09,48,13.40
2017,05,19,09,49,13.40
2017,05,19,09,50,13.40
2017,05,19,09,51,13.40
2017,05,19,09,52,13.50
2017,05,19,09,53,13.50
2017,05,19,09,54,13.50
2017,05,19,09,55,13.60
2017,05,19,09,56,13.60
2017,05,19,09,57,13.70
2017,05,19,09,58,13.70
2017,05,19,09,59,13.70
2017,05,19,10,00,13.80
2017,05,19,10,01,13.80
2017,05,19,10,02,13.80
2017,05,19,10,03,13.90
2017,05,19,10,04,13.90
2017,05,19,10,05,14.00
2017,05,19,10,06,14.00
2017,05,19,10,07,14.10
2017,05,19,10,08,14.10
2017,05,19,10,09,14.20
2017,05,19,10,10,14.20
2017,05,19,10,11,14.20
2017,05,19,10,12,14.30
2017,05,19,10,13,14.30
2017,05,19,10,14,14.30
2017,05,19,10,15,14.40
2017,05,19,10,16,14.40
2017,05,19,10,17,14.40
2017,05,19,10,18,14.50
2017,05,19,10,19,14.50
2017,05,19,10,20,14.60
2017,05,19,10,21,14.60
2017,05,19,10,22,14.60
2017,05,19,10,23,14.70
2017,05,19,10,24,14.70
2017,05,19,10,25,14.70
2017,05,19,10,26,14.70
2017,05,19,10,27,14.80
2017,05,19,10,28,14.80
2017,05,19,10,29,14.80
2017,05,19,10,30,14.80
2017,05,19,10,31,14.80
2017,05,19,10,32,14.80
2017,05,19,10,33,14.80
2017,05,19,10,34,14.90
2017,05,19,10,35,14.90
2017,05,19,10,36,15.00
2017,05,19,10,37,15.00
2017,05,19,10,38,15.00
2017,05,19,10,39,15.00
2017,05,19,10,40,15.00
2017,05,19,10,41,15.00
2017,05,19,10,42,15.00
2017,05,19,10,43,15.00
2017,05,19,10,44,15.00
2017,05,19,10,45,15.00
2017,05,19,10,46,15.10
2017,05,19,10,47,15.10
2017,05,19,10,48,15.20
2017,05,19,10,49,15.20
2017,05,19,10,50,15.20
2017,05,19,10,51,15.20
2017,05,19,10,52,15.30
2017,05,19,10,53,15.30
2017,05,19,10,54,15.30
2017,05,19,10,55,15.40
2017,05,19,10,56,15.40
2017,05,19,10,57,15.40
2017,05,19,10,58,15.40
2017,05,19,10,59,15.50
2017,05,19,11,00,15.50
2017,05,19,11,01,15.50
2017,05,19,11,02,15.50
2017,05,19,11,03,15.50
2017,05,19,11,04,15.60
2017,05,19,11,05,15.60
2017,05,19,11,06,15.60
2017,05,19,11,07,15.70
2017,05,19,11,08,15.70
2017,05,19,11,09,15.70
2017,05,19,11,10,15.80
2017,05,19,11,11,15.80
2017,05,19,11,12,15.80
2017,05,19,11,13,15.80
2017,05,19,11,14,15.90
2017,05,19,11,15,15.90
2017,05,19,11,16,16.00
2017,05,19,11,17,16.00
2017,05,19,11,18,16.00
2017,05,19,11,19,16.10
2017,05,19,11,20,16.10
2017,05,19,11,21,16.10
2017,05,19,11,22,16.10
2017,05,19,11,23,16.20
2017,05,19,11,24,16.20
2017,05,19,11,25,16.20
2017,05,19,11,26,16.20
2017,05,19,11,27,16.20
2017,05,19,11,28,16.30
2017,05,19,11,29,16.30
2017,05,19,11,30,16.30
2017,05,19,11,31,16.40
2017,05,19,11,32,16.40
2017,05,19,11,33,16.50
2017,05,19,11,34,16.50
2017,05,19,11,35,16.60
2017,05,19,11,36,16.60
2017,05,19,11,37,16.60
2017,05,19,11,38,16.70
2017,05,19,11,39,16.70
2017,05,19,11,40,16.70
2017,05,19,11,41,16.80
2017,05,19,11,42,16.80
2017,05,19,11,43,16.80
2017,05,19,11,44,16.80
2017,05,19,11,45,16.90
2017,05,19,11,46,16.90
2017,05,19,11,47,16.90
2017,05,19,11,48,17.00
2017,05,19,11,49,17.00
2017,05,19,11,50,17.00
2017,05,19,11,51,17.00
2017,05,19,11,52,17.00
2017,05,19,11,53,17.00
2017,05,19,11,54,16.90
2017,05,19,11,55,16.90
2017,05,19,11,56,16.80
2017,05,19,11,57,16.80
2017,05,19,11,58,16.80
2017,05,19,11,59,16.80
2017,05,19,12,00,16.90
2017,05,19,12,01,16.90
2017,05,19,12,02,16.90
2017,05,19,12,03,16.90
2017,05,19,12,04,17.00
2017,05,19,12,05,17.00
2017,05,19,12,06,17.10
2017,05,19,12,07,17.10
2017,05,19,12,08,17.20
2017,05,19,12,09,17.20
2017,05,19,12,10,17.20
2017,05,19,12,11,17.30
2017,05,19,12,12,17.30
2017,05,19,12,13,17.30
2017,05,19,12,14,17.30
2017,05,19,12,15,17.30
2017,05,19,12,16,17.40
2017,05,19,12,17,17.40
2017,05,19,12,18,17.40
2017,05,19,12,19,17.50
2017,05,19,12,20,17.50
2017,05,19,12,21,17.50
2017,05,19,12,22,17.50
2017,05,19,12,23,17.50
2017,05,19,12,24,17.50
2017,05,19,12,25,17.50
2017,05,19,12,26,17.50
2017,05,19,12,27,17.50
2017,05,19,12,28,17.50
2017,05,19,12,29,17.60
2017,05,19,12,30,17.60
2017,05,19,12,31,17.60
2017,05,19,12,32,17.60
2017,05,19,12,33,17.60
2017,05,19,12,34,17.60
2017,05,19,12,35,17.60
2017,05,19,12,36,17.70
2017,05,19,12,37,17.70
2017,05,19,12,38,17.70
2017,05,19,12,39,17.70
2017,05,19,12,40,17.70
2017,05,19,12,41,17.80
2017,05,19,12,42,17.80
2017,05,19,12,43,17.80
2017,05,19,12,44,17.80
2017,05,19,12,45,17.90
2017,05,19,12,46,17.90
2017,05,19,12,47,18.00
2017,05,19,12,48,18.00
2017,05,19,12,49,17.90
2017,05,19,12,50,17.90
2017,05,19,12,51,18.00
2017,05,19,12,52,17.90
2017,05,19,12,53,18.00
2017,05,19,12,54,18.00
2017,05,19,12,55,18.00
2017,05,19,12,56,18.00
2017,05,19,12,57,18.10
2017,05,19,12,58,18.10
2017,05,19,12,59,18.10
2017,05,19,13,00,18.10
2017,05,19,13,01,18.10
2017,05,19,13,02,18.10
2017,05,19,13,03,18.10
2017,05,19,13,04,18.10
2017,05,19,13,05,18.00
2017,05,19,13,06,18.00
2017,05,19,13,07,18.00
2017,05,19,13,08,18.10
2017,05,19,13,09,18.10
2017,05,19,13,10,18.10
2017,05,19,13,11,18.20
2017,05,19,13,12,18.20
2017,05,19,13,13,18.20
2017,05,19,13,14,18.30
2017,05,19,13,15,18.30
2017,05,19,13,16,18.30
2017,05,19,13,17,18.40
2017,05,19,13,18,18.40
2017,05,19,13,19,18.50
2017,05,19,13,20,18.50
2017,05,19,13,21,18.60
2017,05,19,13,22,18.60
2017,05,19,13,23,18.70
2017,05,19,13,24,18.70
2017,05,19,13,25,18.80
2017,05,19,13,26,18.80
2017,05,19,13,27,18.80
2017,05,19,13,28,18.90
2017,05,19,13,29,18.90
2017,05,19,13,30,18.90
2017,05,19,13,31,18.90
2017,05,19,13,32,19.00
2017,05,19,13,33,19.00
2017,05,19,13,34,19.00
2017,05,19,13,35,19.00
2017,05,19,13,36,19.00
2017,05,19,13,37,19.00
2017,05,19,13,38,19.00
2017,05,19,13,39,19.00
2017,05,19,13,40,19.00
2017,05,19,13,41,18.90
2017,05,19,13,42,18.90
2017,05,19,13,43,18.80
2017,05,19,13,44,18.80
2017,05,19,13,45,18.80
2017,05,19,13,46,18.80
2017,05,19,13,47,18.80
2017,05,19,13,48,18.80
2017,05,19,13,49,18.80
2017,05,19,13,50,18.90
2017,05,19,13,51,18.90
2017,05,19,13,52,18.90
2017,05,19,13,53,18.90
2017,05,19,13,54,18.90
2017,05,19,13,55,18.90
2017,05,19,13,56,18.90
2017,05,19,13,57,18.90
2017,05,19,13,58,18.90
2017,05,19,13,59,18.80
2017,05,19,14,00,18.80
2017,05,19,14,01,18.80
2017,05,19,14,02,18.70
2017,05,19,14,03,18.70
2017,05,19,14,04,18.60
2017,05,19,14,05,18.60
2017,05,19,14,06,18.50
2017,05,19,14,07,18.50
2017,05,19,14,08,18.40
2017,05,19,14,09,18.40
2017,05,19,14,10,18.40
2017,05,19,14,11,18.30
2017,05,19,14,12,18.30
2017,05,19,14,13,18.20
2017,05,19,14,14,18.20
2017,05,19,14,15,18.20
2017,05,19,14,16,18.20
2017,05,19,14,17,18.20
2017,05,19,14,18,18.10
2017,05,19,14,19,18.10
2017,05,19,14,20,18.10
2017,05,19,14,21,18.00
2017,05,19,14,22,18.00
2017,05,19,14,23,17.90
2017,05,19,14,24,17.90
2017,05,19,14,25,17.90
2017,05,19,14,26,17.80
2017,05,19,14,27,17.80
2017,05,19,14,28,17.70
2017,05,19,14,29,17.70
2017,05,19,14,30,17.70
2017,05,19,14,31,17.60
2017,05,19,14,32,17.60
2017,05,19,14,33,17.60
2017,05,19,14,34,17.50
2017,05,19,14,35,17.50
2017,05,19,14,36,17.50
2017,05,19,14,37,17.40
2017,05,19,14,38,17.40
2017,05,19,14,39,17.40
2017,05,19,14,40,17.40
2017,05,19,14,41,17.40
2017,05,19,14,42,17.40
2017,05,19,14,43,17.40
2017,05,19,14,44,17.40
2017,05,19,14,45,17.40
2017,05,19,14,46,17.40
2017,05,19,14,47,17.40
2017,05,19,14,48,17.40
2017,05,19,14,49,17.40
2017,05,19,14,50,17.40
2017,05,19,14,51,17.50
2017,05,19,14,52,17.50
2017,05,19,14,53,17.50
2017,05,19,14,54,17.60
2017,05,19,14,55,17.60
2017,05,19,14,56,17.70
2017,05,19,14,57,17.70
2017,05,19,14,58,17.80
2017,05,19,14,59,17.90
2017,05,19,15,00,18.00
2017,05,19,15,01,18.00
2017,05,19,15,02,18.10
2017,05,19,15,03,18.20
2017,05,19,15,04,18.20
2017,05,19,15,05,18.20
2017,05,19,15,06,18.20
2017,05,19,15,07,18.20
2017,05,19,15,08,18.30
2017,05,19,15,09,18.30
2017,05,19,15,10,18.30
2017,05,19,15,11,18.30
2017,05,19,15,12,18.30
2017,05,19,15,13,18.30
2017,05,19,15,14,18.20
2017,05,19,15,15,18.20
2017,05,19,15,16,18.20
2017,05,19,15,17,18.20
2017,05,19,15,18,18.10
2017,05,19,15,19,18.10
2017,05,19,15,20,18.00
2017,05,19,15,21,18.00
2017,05,19,15,22,17.90
2017,05,19,15,23,17.90
2017,05,19,15,24,17.90
2017,05,19,15,25,17.90
2017,05,19,15,26,17.90
2017,05,19,15,27,17.80
2017,05,19,15,28,17.80
2017,05,19,15,29,17.80
2017,05,19,15,30,17.80
2017,05,19,15,31,17.80
2017,05,19,15,32,17.70
2017,05,19,15,33,17.70
2017,05,19,15,34,17.70
2017,05,19,15,35,17.70
2017,05,19,15,36,17.60
2017,05,19,15,37,17.60
2017,05,19,15,38,17.60
2017,05,19,15,39,17.60
2017,05,19,15,40,17.60
2017,05,19,15,41,17.60
2017,05,19,15,42,17.60
2017,05,19,15,43,17.50
2017,05,19,15,44,17.50
2017,05,19,15,45,17.50
2017,05,19,15,46,17.50
2017,05,19,15,47,17.50
2017,05,19,15,48,17.50
2017,05,19,15,49,17.50
2017,05,19,15,50,17.50
2017,05,19,15,51,17.50
2017,05,19,15,52,17.50
2017,05,19,15,53,17.50
2017,05,19,15,54,17.60
2017,05,19,15,55,17.60
2017,05,19,15,56,17.60
2017,05,19,15,57,17.60
2017,05,19,15,58,17.60
2017,05,19,15,59,17.60
2017,05,19,16,00,17.70
2017,05,19,16,01,17.70
2017,05,19,16,02,17.70
2017,05,19,16,03,17.80
2017,05,19,16,04,17.80
2017,05,19,16,05,17.80
2017,05,19,16,06,17.80
2017,05,19,16,07,17.90
2017,05,19,16,08,17.90
2017,05,19,16,09,17.90
2017,05,19,16,10,17.90
2017,05,19,16,11,18.00
2017,05,19,16,12,18.00
2017,05,19,16,13,18.10
2017,05,19,16,14,18.10
2017,05,19,16,15,18.10
2017,05,19,16,16,18.20
2017,05,19,16,17,18.20
2017,05,19,16,18,18.20
2017,05,19,16,19,18.30
2017,05,19,16,20,18.30
2017,05,19,16,21,18.30
2017,05,19,16,22,18.40
2017,05,19,16,23,18.40
2017,05,19,16,24,18.40
2017,05,19,16,25,18.40
2017,05,19,16,26,18.40
2017,05,19,16,27,18.40
2017,05,19,16,28,18.40
2017,05,19,16,29,18.40
2017,05,19,16,30,18.40
2017,05,19,16,31,18.50
2017,05,19,16,32,18.50
2017,05,19,16,33,18.50
2017,05,19,16,34,18.50
2017,05,19,16,35,18.60
2017,05,19,16,36,18.60
2017,05,19,16,37,18.60
2017,05,19,16,38,18.60
2017,05,19,16,39,18.60
2017,05,19,16,40,18.60
2017,05,19,16,41,18.60
2017,05,19,16,42,18.60
2017,05,19,16,43,18.60
2017,05,19,16,44,18.60
2017,05,19,16,45,18.60
2017,05,19,16,46,18.60
2017,05,19,16,47,18.60
2017,05,19,16,48,18.60
2017,05,19,16,49,18.60
2017,05,19,16,50,18.60
2017,05,19,16,51,18.60
2017,05,19,16,52,18.60
2017,05,19,16,53,18.60
2017,05,19,16,54,18.60
2017,05,19,16,55,18.60
2017,05,19,16,56,18.60
2017,05,19,16,57,18.50
2017,05,19,16,58,18.50
2017,05,19,16,59,18.50
2017,05,19,17,00,18.40
2017,05,19,17,01,18.40
2017,05,19,17,02,18.40
2017,05,19,17,03,18.40
2017,05,19,17,04,18.40
2017,05,19,17,05,18.40
2017,05,19,17,06,18.40
2017,05,19,17,07,18.40
2017,05,19,17,08,18.40
2017,05,19,17,09,18.40
2017,05,19,17,10,18.30
2017,05,19,17,11,18.30
2017,05,19,17,12,18.30
2017,05,19,17,13,18.30
2017,05,19,17,14,18.30
2017,05,19,17,15,18.30
2017,05,19,17,16,18.30
2017,05,19,17,17,18.30
2017,05,19,17,18,18.30
2017,05,19,17,19,18.30
2017,05,19,17,20,18.30
2017,05,19,17,21,18.30
2017,05,19,17,22,18.30
2017,05,19,17,23,18.20
2017,05,19,17,24,18.20
2017,05,19,17,25,18.20
2017,05,19,17,26,18.20
2017,05,19,17,27,18.20
2017,05,19,17,28,18.20
2017,05,19,17,29,18.20
2017,05,19,17,30,18.20
2017,05,19,17,31,18.20
2017,05,19,17,32,18.20
2017,05,19,17,33,18.10
2017,05,19,17,34,18.10
2017,05,19,17,35,18.10
2017,05,19,17,36,18.10
2017,05,19,17,37,18.10
2017,05,19,17,38,18.00
2017,05,19,17,39,18.00
2017,05,19,17,40,18.00